Stations météo

réclame
Mon MeteoGroup
D15-FA-1, Pays-Bas (6201): Température de l'air & dewpoint: 12.02.2019 01:00:00 - 18.02.2019 01:00:00 (CET)D15-FA-1, Pays-Bas (6201): Vitesse du vent & gusts: 12.02.2019 01:00:00 - 18.02.2019 01:00:00 (CET)D15-FA-1, Pays-Bas (6201): Direction du vent: 12.02.2019 01:00:00 - 18.02.2019 01:00:00 (CET)D15-FA-1, Pays-Bas (6201): reduced air pressure: 12.02.2019 01:00:00 - 18.02.2019 01:00:00 (CET)D15-FA-1, Pays-Bas (6201): visibility: 12.02.2019 01:00:00 - 18.02.2019 01:00:00 (CET)
Date & Time tt [°C] td [°C] ff [km/h] ff [knt] fx [km/h] fx [knt] dd ppp [hPa] vv [km]
18.02.2019 01:00:00 8,1 6,4 46 25 47 25 SW 1014,1 10
18.02.2019 00:00:00 8,1 6,0 52 28 54 29 SW 1013,7 10
17.02.2019 23:00:00 8,7 5,8 50 27 50 27 SW 1013,6 10
17.02.2019 22:00:00 8,2 5,5 44 24 47 25 SSW 1013,6 10
17.02.2019 21:00:00 7,8 5,4 35 19 43 23 S 1013,4 10
17.02.2019 20:00:00 7,7 5,2 37 20 43 23 S 1013,3 10
17.02.2019 19:00:00 7,7 4,9 39 21 47 25 S 1012,9 10
17.02.2019 18:00:00 7,8 4,7 42 23 40 21 S 1012,6 10
17.02.2019 17:00:00 8,2 4,7 44 24 43 23 S 1012,8 10
17.02.2019 16:00:00 8,1 4,9 42 23 43 23 S 1013,1 10
17.02.2019 15:00:00 7,9 5,1 42 23 40 21 SSE 1013,5 10
17.02.2019 14:00:00 7,9 5,4 42 23 47 25 SSE 1014,3 10
17.02.2019 13:00:00 7,8 5,8 44 24 43 23 SSE 1014,7 8
17.02.2019 12:00:00 7,8 5,7 41 22 40 21 SSE 1015,5 8
17.02.2019 11:00:00 7,5 5,7 39 21 40 21 SSE 1015,9 6
17.02.2019 10:00:00 7,8 5,7 39 21 36 19 SSE 1016,3 7
17.02.2019 09:00:00 7,6 6,0 37 20 36 19 SSE 1016,8 6
17.02.2019 08:00:00 7,5 6,4 35 19 32 18 S 1016,9 8
17.02.2019 07:00:00 7,4 6,8 35 19 32 18 S 1017,1 10
17.02.2019 06:00:00 7,8 6,9 37 20 36 19 S 1017,3 10
17.02.2019 05:00:00 7,8 6,6 29 16 40 21 S 1017,8 10
17.02.2019 04:00:00 8,8 7,1 42 23 47 25 SW 1018,4 10
17.02.2019 03:00:00 8,6 7,1 52 28 50 27 SW 1018,7 10
17.02.2019 02:00:00 8,2 7,0 52 28 50 27 SW 1018,9 8
17.02.2019 01:00:00 8,3 7,1 52 28 54 29 SW 1019,3 7
17.02.2019 00:00:00 8,3 7,1 50 27 47 25 SW 1019,6 7
16.02.2019 23:00:00 8,3 7,1 48 26 50 27 SW 1019,8 7
16.02.2019 22:00:00 8,3 7,0 44 24 47 25 SSW 1019,8 8
16.02.2019 21:00:00 8,1 7,0 42 23 43 23 SSW 1019,8 7
16.02.2019 20:00:00 7,9 6,8 35 19 43 23 SSW 1019,9 7
16.02.2019 19:00:00 7,9 6,7 41 22 43 23 SW 1019,9 6
16.02.2019 18:00:00 7,6 6,5 37 20 43 23 SW 1020,0 5
16.02.2019 17:00:00 7,9 6,5 28 15 32 18 SW 1019,9 8
16.02.2019 16:00:00 7,9 6,6 35 19 32 18 SW 1020,1 10
16.02.2019 15:00:00 7,7 6,4 34 18 32 18 SW 1020,3 9
16.02.2019 14:00:00 7,6 6,3 34 18 32 18 SW 1020,2 10
16.02.2019 13:00:00 7,7 6,2 35 19 36 19 SW 1020,4 10
16.02.2019 12:00:00 7,7 5,9 35 19 36 19 SW 1020,3 9
16.02.2019 11:00:00 7,8 5,9 34 18 32 18 SW 1020,1 10
16.02.2019 10:00:00 7,6 5,8 31 17 32 18 SW 1019,6 10
16.02.2019 09:00:00 7,4 5,4 35 19 32 18 SW 1019,2 10
16.02.2019 08:00:00 7,5 5,0 35 19 36 19 SW 1019,0 10
16.02.2019 07:00:00 7,4 4,7 35 19 36 19 SW 1018,8 10
16.02.2019 06:00:00 7,6 4,6 31 17 43 23 SW 1019,1 10
16.02.2019 05:00:00 7,9 4,5 44 24 50 27 SW 1018,6 10
16.02.2019 04:00:00 7,7 4,7 46 25 47 25 SW 1019,0 10
16.02.2019 03:00:00 7,7 4,9 41 22 47 25 SW 1019,8 10
16.02.2019 02:00:00 7,6 5,0 46 25 50 27 SW 1020,3 10
16.02.2019 01:00:00 7,7 5,0 42 23 47 25 SW 1020,8 10
16.02.2019 00:00:00 7,6 5,1 37 20 47 25 SSW 1021,3 10
15.02.2019 23:00:00 7,4 4,9 37 20 43 23 S 1021,4 10
15.02.2019 22:00:00 7,6 4,5 34 18 40 21 S 1022,0 10
15.02.2019 21:00:00 7,5 4,6 37 20 36 19 S 1022,4 10
15.02.2019 20:00:00 7,3 5,0 39 21 36 19 S 1022,8 10
15.02.2019 19:00:00 7,1 5,2 34 18 32 18 S 1023,5 9
15.02.2019 18:00:00 7,2 5,0 34 18 36 19 S 1023,9 10
15.02.2019 17:00:00 7,5 4,9 29 16 29 16 S 1024,1 10
15.02.2019 16:00:00 7,6 4,9 34 18 36 19 S 1024,7 10
15.02.2019 15:00:00 7,4 5,3 34 18 32 18 S 1025,4 9
15.02.2019 14:00:00 7,4 5,4 35 19 32 18 S 1026,0 9
15.02.2019 13:00:00 7,3 5,4 31 17 36 19 S 1026,8 10
15.02.2019 12:00:00 7,4 5,4 34 18 40 21 S 1027,3 10
15.02.2019 11:00:00 7,5 5,3 29 16 29 16 S 1027,6 10
15.02.2019 10:00:00 7,5 5,2 29 16 29 16 S 1028,0 10
15.02.2019 09:00:00 7,4 5,0 28 15 29 16 S 1028,1 10
15.02.2019 08:00:00 7,2 4,9 31 17 29 16 S 1028,1 10
15.02.2019 07:00:00 7,2 4,9 29 16 25 14 S 1028,4 10
15.02.2019 06:00:00 7,2 4,9 28 15 29 16 S 1028,7 10
15.02.2019 05:00:00 7,3 5,0 28 15 29 16 S 1028,8 10
15.02.2019 04:00:00 7,5 4,8 26 14 32 18 S 1029,3 10
15.02.2019 03:00:00 7,4 4,9 28 15 29 16 S 1029,8 10
15.02.2019 02:00:00 7,2 4,9 29 16 29 16 S 1030,5 10
15.02.2019 01:00:00 7,2 4,6 29 16 29 16 S 1030,8 10
15.02.2019 00:00:00 7,4 4,3 34 18 36 19 SSW 1030,6 10
14.02.2019 23:00:00 7,3 4,0 35 19 40 21 SSW 1030,7 10
14.02.2019 22:00:00 6,9 5,0 35 19 36 19 SSW 1030,7 10
14.02.2019 21:00:00 6,9 4,9 35 19 40 21 SW 1030,9 10
14.02.2019 20:00:00 7,0 4,4 29 16 36 19 SSW 1031,1 10
14.02.2019 19:00:00 7,3 4,1 34 18 36 19 SSW 1031,3 10
14.02.2019 18:00:00 6,9 4,5 31 17 36 19 SSW 1031,3 10
14.02.2019 17:00:00 6,9 5,0 35 19 36 19 SW 1031,2 10
14.02.2019 16:00:00 7,1 4,7 24 13 36 19 SW 1031,6 10
14.02.2019 15:00:00 6,7 4,9 29 16 32 18 SW 1031,7 10
14.02.2019 14:00:00 6,8 5,2 26 14 32 18 SW 1032,1 10
14.02.2019 13:00:00 6,7 5,2 29 16 29 16 SW 1032,6 10
14.02.2019 12:00:00 6,7 5,2 28 15 29 16 SW 1032,5 10
14.02.2019 11:00:00 6,5 5,0 26 14 29 16 WSW 1032,2 10
14.02.2019 10:00:00 6,5 4,9 26 14 25 14 WSW 1031,9 10
14.02.2019 09:00:00 6,5 4,9 24 13 29 16 WSW 1031,4 10
14.02.2019 08:00:00 6,5 4,9 34 18 32 18 SW 1030,7 10
14.02.2019 07:00:00 6,4 4,9 34 18 32 18 WSW 1030,5 10
14.02.2019 06:00:00 6,5 4,9 29 16 32 18 SW 1030,4 10
14.02.2019 05:00:00 6,8 4,9 31 17 32 18 WSW 1030,5 10
14.02.2019 04:00:00 6,8 5,1 29 16 32 18 WSW 1030,4 10
14.02.2019 03:00:00 6,9 5,3 34 18 43 23 SW 1029,7 10
14.02.2019 02:00:00 7,2 5,5 34 18 36 19 SW 1029,9 10
14.02.2019 01:00:00 7,3 5,6 37 20 36 19 SW 1029,5 10
14.02.2019 00:00:00 7,4 5,6 31 17 32 18 SW 1029,7 10
13.02.2019 23:00:00 7,6 5,5 31 17 32 18 SW 1029,7 10
13.02.2019 22:00:00 7,7 5,5 35 19 36 19 SW 1029,7 10
13.02.2019 21:00:00 7,6 5,5 31 17 47 25 SSW 1029,5 10
13.02.2019 20:00:00 7,4 5,6 37 20 43 23 SW 1029,7 10
13.02.2019 19:00:00 7,0 5,7 18 10 32 18 S 1030,0 10
13.02.2019 18:00:00 7,1 5,5 29 16 32 18 SW 1029,6 10
13.02.2019 17:00:00 7,1 5,4 35 19 36 19 SW 1029,2 10
13.02.2019 16:00:00 7,0 5,4 35 19 36 19 SW 1029,1 10
13.02.2019 15:00:00 7,1 5,7 37 20 43 23 SW 1029,0 10
13.02.2019 14:00:00 7,0 5,8 35 19 36 19 WSW 1029,8 10
13.02.2019 13:00:00 7,0 5,9 37 20 36 19 SW 1029,7 10
13.02.2019 12:00:00 7,0 5,8 37 20 36 19 SW 1030,1 10
13.02.2019 11:00:00 7,0 6,0 35 19 36 19 WSW 1030,0 10
13.02.2019 10:00:00 6,8 5,9 34 18 32 18 WSW 1030,0 10
13.02.2019 09:00:00 6,9 5,9 31 17 29 16 SW 1029,6 10
13.02.2019 08:00:00 7,0 5,9 28 15 29 16 WSW 1029,4 10
13.02.2019 07:00:00 7,3 6,0 31 17 32 18 WSW 1029,4 10
13.02.2019 06:00:00 7,5 6,0 28 15 29 16 WSW 1029,3 10
13.02.2019 05:00:00 7,1 6,0 31 17 32 18 WSW 1029,4 10
13.02.2019 04:00:00 7,1 5,9 34 18 36 19 WSW 1029,3 10
13.02.2019 03:00:00 7,3 5,8 37 20 36 19 WSW 1029,3 10
13.02.2019 02:00:00 7,4 5,9 35 19 32 18 WSW 1028,8 10
13.02.2019 01:00:00 7,4 5,9 35 19 36 19 WSW 1028,7 10
13.02.2019 00:00:00 7,3 5,9 35 19 36 19 WSW 1029,3 10
12.02.2019 23:00:00 7,3 5,7 35 19 40 21 WSW 1028,7 10
12.02.2019 22:00:00 7,3 5,9 37 20 36 19 WSW 1028,5 10
12.02.2019 21:00:00 7,2 5,5 37 20 40 21 WSW 1028,4 10
12.02.2019 20:00:00 7,3 5,3 39 21 40 21 WSW 1028,2 10
12.02.2019 19:00:00 7,0 5,1 35 19 36 19 WSW 1027,7 10
12.02.2019 18:00:00 6,6 5,0 35 19 36 19 SW 1027,1 10
12.02.2019 17:00:00 6,5 4,8 34 18 36 19 WSW 1027,5 10
12.02.2019 16:00:00 6,2 4,6 34 18 32 18 WSW 1028,2 10
12.02.2019 15:00:00 6,0 4,4 29 16 29 16 WSW 1028,4 10
12.02.2019 14:00:00 6,1 4,6 29 16 29 16 WSW 1028,4 10
12.02.2019 13:00:00 6,2 4,6 29 16 29 16 WSW 1028,7 10
12.02.2019 12:00:00 6,2 4,3 29 16 29 16 WSW 1028,8 10
12.02.2019 11:00:00 6,3 4,4 29 16 29 16 WSW 1028,8 10
12.02.2019 10:00:00 6,2 4,6 28 15 29 16 WSW 1029,0 10
12.02.2019 09:00:00 6,2 4,5 26 14 29 16 WSW 1028,7 10
12.02.2019 08:00:00 6,1 4,2 26 14 29 16 WSW 1028,6 10
12.02.2019 07:00:00 6,0 4,3 22 12 25 14 - 1028,5 10
12.02.2019 06:00:00 6,1 4,2 28 15 29 16 WSW 1028,6 10
12.02.2019 05:00:00 6,3 4,1 29 16 29 16 WSW 1028,8 10
12.02.2019 04:00:00 6,1 3,7 26 14 29 16 WSW 1028,9 10
12.02.2019 03:00:00 5,8 3,3 16 9 25 14 - 1029,5 10
12.02.2019 02:00:00 5,8 3,2 22 12 25 14 WSW 1029,8 10
12.02.2019 01:00:00 5,7 2,9 22 12 22 12 W 1029,8 10

tt = Température de l'air
td = dewpoint
ff = Vitesse du vent
fx = gusts
dd = Direction du vent
ppp = reduced air pressure
vv = visibility

stations d'obs. à proximité